Location: Warszawa
(52.2500°N, 21.0000°E)
Time: 04:57:41
(UTC+01:00)

A-11 Canister half - Visible Passes

Search period start: 08 February 2023 00:00
Search period end: 18 February 2023 00:00
Orbit: 1525 x 1683 km, 47.3° (Epoch: 07 February)

Date Brightness Start Highest point End Pass type
(mag) Time Alt. Az. Time Alt. Az. Time Alt. Az.
08 Feb 10.8 02:12:39 14° SE 02:13:38 14° SE 02:18:04 10° E visible
08 Feb 9.8 04:10:58 21° SSW 04:16:29 40° SSE 04:24:56 10° E visible
08 Feb 9.4 06:11:19 10° WSW 06:20:27 64° S 06:29:44 10° E visible
09 Feb 10.8 01:52:25 13° ESE 01:52:25 13° ESE 01:56:03 10° E visible
09 Feb 9.8 03:50:44 27° SSW 03:54:50 39° SSE 04:03:13 10° E visible
09 Feb 9.3 05:49:40 10° WSW 05:58:47 63° S 06:08:02 10° E visible
10 Feb 10.9 01:32:06 12° ESE 01:32:06 12° ESE 01:33:57 10° ESE visible
10 Feb 9.8 03:30:25 31° S 03:33:13 38° SE 03:41:30 10° E visible
10 Feb 9.3 05:28:44 13° WSW 05:37:07 63° S 05:46:20 10° E visible
11 Feb 9.7 03:10:02 34° SSE 03:11:36 36° SE 03:19:47 10° E visible
11 Feb 9.3 05:08:20 18° WSW 05:15:27 62° SSE 05:24:39 10° E visible
12 Feb 9.8 02:49:35 35° SSE 02:49:59 35° SE 02:58:05 10° E visible
12 Feb 9.2 04:47:54 24° WSW 04:53:48 61° SSE 05:02:57 10° E visible
13 Feb 9.9 02:29:06 33° SE 02:29:06 33° SE 02:36:21 10° E visible
13 Feb 9.2 04:27:23 31° SW 04:32:08 60° SSE 04:41:15 10° E visible
14 Feb 10.1 02:08:35 30° ESE 02:08:35 30° ESE 02:14:38 10° E visible
14 Feb 9.2 04:06:52 38° SW 04:10:28 59° SSE 04:19:34 10° E visible
14 Feb 9.3 06:05:43 10° W 06:14:51 64° S 06:24:05 10° ESE visible
15 Feb 10.2 01:48:01 26° ESE 01:48:01 26° ESE 01:52:55 10° E visible
15 Feb 9.1 03:46:18 46° SSW 03:48:49 58° SSE 03:57:53 10° E visible
15 Feb 9.2 05:44:35 12° W 05:53:10 64° S 06:02:25 10° ESE visible
16 Feb 10.4 01:27:25 22° ESE 01:27:25 22° ESE 01:31:10 10° E visible
16 Feb 9.1 03:25:43 53° SSW 03:27:09 57° SSE 03:36:12 10° E visible
16 Feb 9.2 05:23:59 17° W 05:31:30 65° S 05:40:44 10° ESE visible
17 Feb 10.6 01:06:49 18° E 01:06:49 18° E 01:09:26 10° E visible
17 Feb 9.1 03:05:06 56° S 03:05:31 56° SSE 03:14:30 10° E visible
17 Feb 9.1 05:03:22 22° W 05:09:50 65° S 05:19:03 10° ESE visible
